Regional Weather Roundup
Issued by NWS San Diego, CA

Home | Current Version | Previous Version | Text Only | Print | Product List | Glossary On
Versions: 1 2 3 4 5 6 7 8 9 10 11 12 13 14 15 16 17 18 19 20 21 22 23 24 25 26 27 28 29 30 31 32 33 34 35 36 37 38 39 40 41 42 43 44 45 46 47 48 49 50
000
ASUS46 KSGX 242311
RWRSGX

SAN DIEGO HOURLY WEATHER ROUNDUP
NATIONAL WEATHER SERVICE SAN DIEGO CA
400 PM PDT SAT SEP 24 2016

NOTE: "FAIR" INDICATES FEW OR NO CLOUDS BELOW 12,000 FEET WITH NO
SIGNIFICANT WEATHER AND/OR OBSTRUCTIONS TO VISIBILITY.

CAZ042-043-060-061-PZZ750-775-250000-

GREATER SAN DIEGO AREA

CITY           SKY/WX    TMP DP  RH WIND       PRES   REMARKS
LINDBERGH FLD  MOSUNNY   85  50  29 NW13      29.94F
POINT LOMA       N/A     74  56  52 NW25        N/A
NATIONAL CITY    N/A     84  57  38 S6        29.93F
CHULA VISTA      N/A     83  63  51 W3        29.86F
IMPERIAL BEACH SUNNY     76  59  55 SW12      29.95F
BROWN FIELD    SUNNY     81  51  35 W9        29.94F
MIRAMAR MCAS   SUNNY     87  44  22 NW12      29.95F
MONTGOMERY FLD SUNNY     85  37  18 N13       29.95F

$$

NORTH SAN DIEGO COUNTY

CITY           SKY/WX    TMP DP  RH WIND       PRES   REMARKS
CAMP PENDLETON SUNNY     88  40  18 SW8       29.92F
OCEANSIDE AP   SUNNY     82  47  29 W10       29.93F
OCEANSIDE HBR    N/A     73  62  68 NW12      29.97F
VISTA            N/A     85  48  27 W6        29.92F
CARLSBAD       SUNNY     78  52  40 W7        29.95S
DEL MAR          N/A     79  59  49 CALM      29.98S
LA JOLLA SCRIP   N/A     72  65  78 NW3       29.95S
FALLBROOK        N/A     90  35  14 SW3       29.92F
ESCONDIDO        N/A     86  46  24 W13       29.96F
SAN MARCOS       N/A     86  46  24 NW5       29.98F
POWAY            N/A     90  41  17 N7        29.95F

$$

EAST SAN DIEGO COUNTY

CITY           SKY/WX    TMP DP  RH WIND       PRES   REMARKS
RAMONA         SUNNY     88  36  15 W13G23    29.97F
SANTEE LAKES     N/A     89  44  21 W3        29.92F
LA MESA          N/A     87  38  17 NW10      29.87F
JAMUL            N/A     90  42  18 CALM      29.94F
DESCANSO N       N/A     80  41  24 W2        29.90S
MT. LAGUNA OBS   N/A     65  24  21 NE12      29.77F
CAMPO            N/A     85  30  13 E17       29.98F

$$

ORANGE COUNTY AND THE LOS ANGELES BASIN

CITY           SKY/WX    TMP DP  RH WIND       PRES   REMARKS
JOHN WAYNE AP  SUNNY     82  52  35 SW8       29.94F
LAGUNA BEACH     N/A     81  63  54 SE3       29.90F
LAKE FOREST FR   N/A     89  38  17 W6        29.83F
HUNTINGTON BCH   N/A     78  63  60 W12       29.96F
LOS ALAMITOS   FAIR      86  53  31 S8        29.93F
FULLERTON      SUNNY     91  50  24 SW8       29.92F
LONG BEACH     SUNNY     86  47  25 W9        29.94F
L.A. AP        SUNNY     79  49  34 W16       29.95F
L.A. DOWNTOWN  SUNNY     82  46  28 W8        29.94F

$$

THE INLAND EMPIRE

CITY           SKY/WX    TMP DP  RH WIND       PRES   REMARKS
CORONA         SUNNY     92  46  20 W16       29.93F
CHINO          SUNNY     95  32  11 NW13      29.95F
ONTARIO        SUNNY     93  27   9 W10G16    29.95F
SAN BERNARDINO SUNNY     97  32  10 NW16      29.93F
RIVERSIDE AP   SUNNY     96  32  10 W12       29.93F
MORENO VALLEY    N/A     94  37  13 W7        28.09F
MARCH ARB      SUNNY     93  29  10 NW17      29.96F
HORSETHIEF CYN   N/A     92  28  10 E8        29.96F
PERRIS           N/A     92  34  13 NW10      29.96F
HEMET EAST       N/A     89  34  14 SW5       30.01F
FRENCH VALLEY  FAIR      93  32  11 S8G18     29.96S
TEMECULA         N/A     91  35  13 SW9       29.97F

$$

SAN BERNARDINO AND RIVERSIDE COUNTY MOUNTAINS

CITY           SKY/WX    TMP DP  RH WIND       PRES   REMARKS
BIG BEAR AP    SUNNY     64  21  19 N5        30.31S
ANGELUS OAKS     N/A     74  37  25 CALM      29.91F
PINE COVE        N/A     71  33  24 W3        30.02F

$$

SOUTHERN DESERT INCLUDING THE COACHELLA VALLEY

CITY           SKY/WX    TMP DP  RH WIND       PRES   REMARKS
PALM SPRINGS   SUNNY     95  34  11 W6        29.93F
PALM DESERT      N/A    100  39  12 CALM      27.55S HX  95
THERMAL        SUNNY     98  29   8 CALM      29.87F
BLYTHE         SUNNY     93  29  10 N8        29.92F
IMPERIAL AP    SUNNY     97  34  11 N12G18    29.89F
EL CENTRO NAS  SUNNY     95  24   8 N7G17     29.91F
YUMA AZ        SUNNY     95  24   8 N13G22    29.90
MEXICALI       SUNNY     93  27   9 SW2       29.91F

$$

UPPER DESERT

CITY           SKY/WX    TMP DP  RH WIND       PRES   REMARKS
VICTORVILLE AP SUNNY     82  28  14 CALM      30.12S
HESPERIA         N/A     82  33  16 NE2       30.16F
PALMDALE       SUNNY     85  28  12 E7        30.10S
LANCASTER      SUNNY     87  29  12 NE13      30.09F
EDWARDS AFB    MOSUNNY   85  29  13 VRB2      30.06F
DAGGETT        SUNNY     89  27  10 NE13G21   30.05F
29 PALMS N     SUNNY     85  27  12 N7        30.11F
NEEDLES        SUNNY     94  29  10 N22G32    29.97F

$$

REGIONAL REPORTS

CITY           SKY/WX    TMP DP  RH WIND       PRES   REMARKS
SANTA BARBARA  SUNNY     83  31  15 W8        29.96F
SANDBERG       SUNNY     82  27  13 E10       30.22S
LAS VEGAS NV   SUNNY     86  24  10 N9        30.05F
PHOENIX AZ     SUNNY     89  32  13 S10       29.90F
TIJUANA        SUNNY     81  45  28 CALM      29.97F
ENSENADA NW      N/A     76  32  20 W3        29.92F

$$

OFFSHORE ISLANDS

CITY           SKY/WX    TMP DP  RH WIND       PRES   REMARKS
CATALINA ARPT  SUNNY     80  30  16 W12       30.03F
SAN NICOLAS IS SUNNY    103  36  10 SW5       29.98F HX  97

$$

MARINE AND OFFSHORE BUOY REPORTS

STATION/POSITION SKY/WX   TEMP    WIND        PRES    SWELL
                          AIR SEA DIR/SP/G            HT/PER/DIR
                          (F)     (DEG/KT/KT) (MB)    (FT/S/D)
TANNER BANKS               67 67  300/  4/  4 1015.0F   7/320/ 8
S CLEMENTE BASIN           69 70  300/ 10/ 12 1013.9F   5/200/17
SAN NICOLAS IS.               66                N/A     3/190/17
SO. S. ROSA ISLA           63 63  320/ 10/ 12 1015.3F   5/180/17
W. S. BARBARA CH           62 62  310/ 14/ 16 1015.0F   5/210/16
M. S. BARBARA CH                  270/  6/  8 1015.5F
S. MONICA BASIN            70 68  290/  8/ 10 1014.9F
OCEANSIDE OFFSHR              70                N/A     3/190/17
TORREY PINES OTR              71                N/A     3/200/17
POINT LOMA SOUTH              67                N/A     3/190/17

$$




USA.gov is the U.S. government's official web portal to all federal, state and local government web resources and services.